Regional Weather Roundup
Issued by NWS

Home | Current Version | Previous Version | Text Only | Print | Product List | Glossary On
Versions: 1 2 3 4 5 6 7 8 9 10 11 12 13 14 15 16 17 18 19 20 21 22 23 24 25 26 27 28 29 30 31 32 33 34 35 36 37 38 39 40 41 42 43 44 45 46 47 48 49 50
000
ASUS43 KMPX 300101
RWRMN
WEATHER ROUNDUP FOR MINNESOTA
NATIONAL WEATHER SERVICE TWIN CITIES/CHANHASSEN MN
800 PM CDT WED OCT 29 2014


NOTE: "FAIR" INDICATES FEW OR NO CLOUDS BELOW 12,000 FEET WITH NO
SIGNIFICANT WEATHER AND/OR OBSTRUCTIONS TO VISIBILITY. N/A MEANS
CURRENT SKY AND/OR WEATHER CONDITIONS ARE NOT AVAILABLE.

MNZ060>063-068>070-300200-
   Twin Cities Metro

CITY           SKY/WX    TMP DP  RH WIND       PRES   REMARKS
TWIN CITIES    CLOUDY    41  31  67 VRB5      30.10S
ST PAUL        MOCLDY    38  33  82 S3        30.11S
CRYSTAL        CLOUDY    38  31  76 CALM      30.09S
BLAINE         CLOUDY    39  34  81 CALM      30.10R
LAKEVILLE      PTCLDY    32  30  93 CALM      30.10S
EDEN PRAIRIE   MOCLDY    39  31  72 CALM      30.09S
SOUTH ST PAUL  MOCLDY    37  32  80 CALM      30.10S
LAKE ELMO      FAIR      32  32 100 CALM      30.11S
$$
MNZ001>005-007-008-013>017-022>024-027-028-300200-
   Northwest Minnesota

CITY           SKY/WX    TMP DP  RH WIND       PRES   REMARKS
BEMIDJI        CLOUDY    34  30  85 CALM      30.05R
HALLOCK        CLOUDY    37  32  81 SE5       30.02S
ROSEAU         CLOUDY    37  30  75 SW6       30.04R
WARROAD        MIX PCPN  36  32  87 S3        30.04F
THIEF RVR FALL CLOUDY    36  30  80 SE5       30.04R
CROOKSTON      CLOUDY    37  30  75 SE7       30.03S
FOSSTON        CLOUDY    34  30  86 SE3       30.03F
DETROIT LAKES  CLOUDY    36  32  87 S6        30.04F
MOORHEAD       MOCLDY    39  32  75 SE9       30.02F
PARK RAPIDS    CLOUDY    35  29  78 SW6       30.05S WCI  30
MAHNOMEN       CLOUDY    35  31  85 S6        30.03F WCI  30
$$
MNZ006-009>011-018-025>026-300200-
   North Central Minnesota

CITY           SKY/WX    TMP DP  RH WIND       PRES   REMARKS
BAUDETTE       CLOUDY    36  33  89 SW6       30.04R
FLAG ISLAND    CLOUDY    36  34  93 W3        30.03R FOG
INTL FALLS     CLOUDY    36  34  92 SW3       30.03S
WASKISH        CLOUDY    36  32  87 CALM      30.05S
BIG FORK       CLOUDY    36  34  93 CALM      30.05S
LONGVILLE      CLOUDY    36  30  80 SW6       30.05S
GRAND RAPIDS   CLOUDY    36  30  80 S5        30.06R
CRANE LAKE     CLOUDY    36  36 100 CALM      30.06S FOG
ORR            CLOUDY    36  34  93 CALM      30.02S
COOK           CLOUDY    36  36 100 CALM      30.04S
WALKER         CLOUDY    35  30  82 SW5       30.05S WCI  31
$$
MNZ012-019>021-037-300200-
   Northeast Minnesota

CITY           SKY/WX    TMP DP  RH WIND       PRES   REMARKS
DULUTH         CLOUDY    38  31  76 W8        30.05R
ELY            CLOUDY    36  36 100 CALM      30.04R FOG
HIBBING        CLOUDY    37  31  78 SW3       30.05R
EVELETH        CLOUDY    36  34  93 W5        30.05S
DULUTH HARBOR  CLOUDY    43  36  75 W10       30.09R
TWO HARBORS    CLOUDY    43 N/A N/A W3        30.04S
SILVER BAY     MOCLDY    41  36  81 CALM      30.04R
GRAND MARAIS     N/A     42  35  76 CALM      30.05S
G MARAIS ARPRT CLOUDY    36  30  80 W2        30.02S
$$
MNZ029>031-032-039>041-046>048-054>057-064-300200-
   West Central Minnesota

CITY           SKY/WX    TMP DP  RH WIND       PRES   REMARKS
FERGUS FALLS   MOCLDY    37  28  70 SE6       30.06S
WHEATON        CLOUDY    36  30  80 SE9       30.06R
MORRIS         PTCLDY    36  32  87 SE7       30.04S
ALEXANDRIA     PTCLDY    34  30  85 CALM      30.07R
ELBOW LAKE     MOCLDY    36  31  84 SE7       30.04S
WADENA         PTCLDY    34  30  86 CALM      30.05S
GLENWOOD       PTCLDY    34  30  86 E3        30.06S
APPLETON       MOCLDY    39  32  75 SE7       30.04F
BENSON         CLEAR     37  30  75 SE6       30.05F
ORTONVILLE     CLOUDY    39  30  70 E8        30.03S
MADISON        CLOUDY    43  36  75 SE8       30.04S
WILLMAR        FAIR      34  28  80 E5        30.08S WCI  30
$$
MNZ033>034-036-042>043-049>051-058-059-300200-
   Central Minnesota

CITY           SKY/WX    TMP DP  RH WIND       PRES   REMARKS
ST CLOUD       CLOUDY    41  32  70 SW3       30.09R
SAUK CENTRE    FAIR      33  30  89 CALM      30.07S
PAYNESVILLE    PTCLDY    33  30  88 CALM      30.07F
AITKIN         CLOUDY    39  34  81 CALM      30.06R
PINE RIVER     CLOUDY    36  30  80 CALM      30.10S
BRAINERD       CLOUDY    37  31  78 W9        30.08R
STAPLES        CLOUDY    36  30  80 CALM      30.06S
LONG PRAIRIE   FAIR      34  32  93 CALM      30.07S
LITTLE FALLS   CLOUDY    36  30  80 CALM      30.07F
LITCHFIELD     PTCLDY    36  34  93 CALM      30.09R
BUFFALO        MOCLDY    36  31  82 CALM      30.10S
MAPLE LAKE     CLOUDY    37  33  83 CALM      30.09S
$$
MNZ037-044-045-052-053-300200-
   East Central Minnesota

CITY           SKY/WX    TMP DP  RH WIND       PRES   REMARKS
PRINCETON      CLOUDY    41  34  75 CALM      30.09S
MORA           CLOUDY    36  32  87 S3        30.10S
CAMBRIDGE      CLOUDY    41  30  65 CALM      30.08R
RUSH CITY      CLOUDY    38  32  77 CALM      30.10R
MOOSE LAKE     CLOUDY    36  32  87 W6        30.06S
HINCKLEY       CLOUDY    37  32  81 CALM      30.09S
CLOQUET        CLOUDY    37  30  75 W6        30.06S
MCGREGOR       CLOUDY    36  32  87 SW3       30.07R
$$
MNZ071>073-080-081-089-090-097-098-300200-
   Southwest Minnesota

CITY           SKY/WX    TMP DP  RH WIND       PRES   REMARKS
MONTEVIDEO     PTCLDY    37  34  87 SE6       30.06F
GRANITE FALLS  PTCLDY    40  31  69 E6        30.07F
CANBY          CLOUDY    42  34  75 S3        30.05S
MARSHALL       MOCLDY    43  28  56 S6        30.04S
REDWOOD FALLS  PTCLDY    42  29  59 E5        30.07R
OLIVIA         PTCLDY    39  32  75 CALM      30.06S
PIPESTONE      MOCLDY    39  28  65 S6        30.05S
WINDOM         PTCLDY    41  30  65 CALM      30.07S
WORTHINGTON    PTCLDY    43  28  56 S3        30.07S
JACKSON        PTCLDY    43  28  56 S5        30.08R
TRACY          MOCLDY    40  31  71 S3        30.06R
SLAYTON        MOCLDY    39  29  67 SW8       30.07R
$$
MNZ065>067-074>077-082>085-091>093-300200-
   South Central Minnesota

CITY           SKY/WX    TMP DP  RH WIND       PRES   REMARKS
MANKATO        MOCLDY    39  28  65 SE5       30.09R
NEW ULM        PTCLDY    41  30  65 CALM      30.08S
ST JAMES       PTCLDY    36  28  75 SE6       30.08S
FAIRMONT       CLEAR     37  25  60 SE3       30.08S
GLENCOE        MOCLDY    36  32  85 CALM      30.08S
FARIBAULT      PTCLDY    32  28  86 CALM      30.10S
OWATONNA       PTCLDY    34  28  80 CALM      30.10S
WASECA         PTCLDY    34  28  80 SE6       30.10F WCI  29
ALBERT LEA     CLEAR     36  30  80 CALM      30.10R
$$
MNZ078>079-086>088-094>096-300200-
   Southeast Minnesota

CITY           SKY/WX    TMP DP  RH WIND       PRES   REMARKS
ROCHESTER      CLEAR     36  30  79 CALM      30.11S
RED WING       CLEAR     36  30  80 CALM      30.10S
STANTON        PTCLDY    34  30  85 CALM      30.10R
DODGE CENTER   PTCLDY    34  30  86 CALM      30.10R
WINONA         CLEAR     37  32  81 CALM      30.12S
AUSTIN         CLEAR     34  30  86 CALM      30.09F
PRESTON        CLEAR     38  31  75 SW3       30.10S
$$
ABBREVIATIONS USED IN REMARKS
   TC - TEMPERATURES IN CELSIUS
  WCI - WIND CHILL INDEX
   HX - HEAT INDEX
  VSB - VISIBILITY
$$



USA.gov is the U.S. government's official web portal to all federal, state and local government web resources and services.